Tracking 29892 objects as of 21-Nov-2024
HD Live streaming from Space Station
objects crossing your sky now

STARLINK-4590

Track STARLINK-4590 now!
10-day predictions
STARLINK-4590 is classified as:


NORAD ID: 53606
Int'l Code: 2022-104U
Perigee: 545.8 km
Apogee: 548.0 km
Inclination: 53.2 °
Period: 95.4 minutes
Semi major axis: 6917 km
RCS: Unknown
Launch date: August 28, 2022
Source: United States (US)
Launch site: AIR FORCE EASTERN TEST RANGE (AFETR)
Your satellite tracking list
Your tracking list is empty




NASA's NSSDC Master Catalog

Two Line Element Set (TLE):
1 53606U 22104U   24325.08112514  .00000912  00000-0  75399-4 0  9996
2 53606  53.2156 204.8316 0001606  85.6531 274.4645 15.08844495123982
Source of the keplerian elements: AFSPC